Weather in Malyy Samovets

Russia / Voronezh Oblast     51°55′36″N   40°19′50″E
В апреле 2022 года жителям России запретили посещать сайт meteo.paraplan.net по решению Генеральной прокуратуры. Аудитория сайта уменьшилась в 10 раз. Владельцы сайта не видят смысла в поддержке погодного сервера в таких условиях. Сайт будет закрыт в октябре.
temp.,
°C
wind,
m/s
gust,
m/s
humid.,
%
clouds,
%
prec.,
mm/h
press.,
hPa
HPBL,
m
5 october, wed
wed500:00+10sw4883100 0.1 1015474
03:00+10sw598193 0.1 1016572
06:00+7ssw510895 0.0 1017365
09:00+9ssw6108296 0.0 1017686
12:00+10sw6979100 0.0 1018798
15:00+10sw5883100 0.3 1018948
18:00+9wsw3784100 0.4 1020539
21:00+8wsw488362 0.6 1020396
6 october, thu
thu600:00+6wsw379486 0.0 1021185
03:00+7w598848 0.1 1021481
06:00+7wsw499158 0.1 1022405
09:00+8w588698 0.1 1022395
12:00+8wsw4790100 0.0 1023358
15:00+12wsw467576 0.1 1022801
18:00+11wsw368491 0.0 1022241
21:00+10sw378822 0.0 1022209
7 october, fri
fri700:00+8sw37943 0.0 1022142
03:00+8sw4895100 0.0 1021165
06:00+8wsw499593 0.0 1021194
09:00+11wnw58836 0.0 1021342
12:00+15nw686922 0.0 1022894
15:00+14nw67640 0.0 1023839
18:00+11wnw35780 0.0 102598
21:00+9wnw35850 0.0 102688
8 october, sat
sat800:00+8nnw33930 0.0 102753
03:00+7nnw11930 0.0 102710
06:00+6wsw11910 0.0 102810
09:00+10sw11750 0.0 1028189
12:00+14sw12520 0.0 1027616
15:00+15sw22480 0.0 1025820
18:00+12s22630 0.0 102511
21:00+10s227325 0.0 102522
9 october, sun
sun900:00+9s347758 0.0 102447
03:00+8s347653 0.0 102459
06:00+8s357581 0.0 102380
09:00+11s4868100 0.0 1022251
12:00+16s5758100 0.0 1020750
15:00+17ssw565294 0.0 10191153
18:00+13ssw226852 0.0 101816
21:00+12ssw2271100 0.0 101817